RYR99ZG EGSS-LIPQ

Flight info

Callsign RYR99ZG
Flight time 1h 47m
Altitude 37000
Route CLN M84 KONAN UL607 MATUG DCT AMASI DCT BOMBI DCT DETEV DCT DINKU M867 XERUM DCT BAVAX DCT RADIZ DCT ARNOS P125 LUPIN
Aircraft B738/M-SDE2E3FGHIRWXY/LB1

Departure

Time 2026-05-04 18:52
Airport London Stansted Airport (EGSS)

Arrival

Time 2026-05-04 20:40
Airport Trieste Airport (LIPQ)
Time Latitude Longitude Altitude Speed Heading
2026-05-04 18:20 51.89451 0.25866 358 ft 0 kts 218°
2026-05-04 18:42 51.89466 0.25885 351 ft 4 kts 218°
2026-05-04 18:42 51.89483 0.25906 361 ft 4 kts 233°
2026-05-04 18:42 51.89486 0.25935 360 ft 4 kts 309°
2026-05-04 18:42 51.89470 0.25963 358 ft 1 kts 313°
2026-05-04 18:43 51.89470 0.25964 358 ft 0 kts 313°
2026-05-04 18:44 51.89484 0.25941 357 ft 9 kts 313°
2026-05-04 18:45 51.89526 0.25824 355 ft 14 kts 259°
2026-05-04 18:45 51.89464 0.25710 353 ft 15 kts 223°
2026-05-04 18:45 51.89379 0.25582 356 ft 18 kts 223°
2026-05-04 18:45 51.89275 0.25426 358 ft 22 kts 223°
2026-05-04 18:46 51.89153 0.25242 351 ft 26 kts 223°
2026-05-04 18:46 51.89019 0.25040 357 ft 26 kts 223°
2026-05-04 18:46 51.88898 0.24859 360 ft 24 kts 223°
2026-05-04 18:46 51.88778 0.24679 353 ft 23 kts 223°
2026-05-04 18:47 51.88660 0.24502 355 ft 26 kts 222°
2026-05-04 18:47 51.88525 0.24301 353 ft 26 kts 223°
2026-05-04 18:47 51.88396 0.24106 348 ft 24 kts 223°
2026-05-04 18:47 51.88276 0.23925 354 ft 23 kts 222°
2026-05-04 18:48 51.88168 0.23765 336 ft 23 kts 222°
2026-05-04 18:48 51.88052 0.23592 337 ft 23 kts 223°
2026-05-04 18:48 51.87939 0.23422 337 ft 22 kts 223°
2026-05-04 18:48 51.87830 0.23256 337 ft 21 kts 223°
2026-05-04 18:49 51.87738 0.23107 338 ft 20 kts 242°
2026-05-04 18:49 51.87793 0.22930 337 ft 19 kts 311°
2026-05-04 18:49 51.87887 0.22761 331 ft 21 kts 312°
2026-05-04 18:49 51.87942 0.22665 331 ft 5 kts 327°
2026-05-04 18:50 51.87966 0.22678 331 ft 0 kts 43°
2026-05-04 18:51 51.87984 0.22705 332 ft 19 kts 43°
2026-05-04 18:52 51.88273 0.23136 335 ft 92 kts 43°
2026-05-04 18:52 51.88900 0.24072 351 ft 151 kts 41°
2026-05-04 18:52 51.89734 0.25307 838 ft 164 kts 42°
2026-05-04 18:52 51.90543 0.26606 1671 ft 164 kts 44°
2026-05-04 18:53 51.91308 0.28170 2041 ft 195 kts 60°
2026-05-04 18:53 51.91729 0.30341 2505 ft 209 kts 85°
2026-05-04 18:53 51.91481 0.32704 3010 ft 225 kts 111°
2026-05-04 18:53 51.90722 0.35110 3248 ft 254 kts 116°
2026-05-04 18:54 51.89908 0.37702 3926 ft 263 kts 115°
2026-05-04 18:54 51.89095 0.40384 4742 ft 267 kts 115°
2026-05-04 18:54 51.88279 0.43107 5553 ft 271 kts 115°
2026-05-04 18:54 51.87461 0.45878 6345 ft 275 kts 115°
2026-05-04 18:55 51.86632 0.48692 7141 ft 279 kts 115°
2026-05-04 18:55 51.84941 0.54445 8670 ft 288 kts 115°
2026-05-04 18:55 51.84072 0.57398 9418 ft 292 kts 115°
2026-05-04 18:56 51.83290 0.60448 10166 ft 296 kts 105°
2026-05-04 18:56 51.82943 0.63806 10547 ft 315 kts 92°
2026-05-04 18:56 51.83012 0.67458 10820 ft 334 kts 86°
2026-05-04 18:56 51.83187 0.71248 11418 ft 342 kts 85°
2026-05-04 18:57 51.83368 0.75104 12199 ft 344 kts 86°
2026-05-04 18:57 51.83527 0.78926 12980 ft 347 kts 86°
2026-05-04 18:57 51.83679 0.82887 13732 ft 351 kts 86°
2026-05-04 18:57 51.83823 0.86847 14475 ft 354 kts 87°
2026-05-04 18:58 51.83965 0.90838 15243 ft 357 kts 87°
2026-05-04 18:58 51.84107 0.94862 15996 ft 361 kts 87°
2026-05-04 18:58 51.84251 0.98922 16701 ft 365 kts 87°
2026-05-04 18:58 51.84396 1.03041 17400 ft 368 kts 88°
2026-05-04 18:59 51.84540 1.07198 18089 ft 372 kts 88°
2026-05-04 18:59 51.84454 1.11379 18681 ft 376 kts 103°
2026-05-04 18:59 51.83439 1.15275 18914 ft 379 kts 126°
2026-05-04 18:59 51.81640 1.18352 19173 ft 376 kts 144°
2026-05-04 19:00 51.79486 1.20698 19457 ft 374 kts 148°
2026-05-04 19:00 51.77308 1.22938 19694 ft 376 kts 149°
2026-05-04 19:00 51.75066 1.25233 19946 ft 378 kts 149°
2026-05-04 19:00 51.72841 1.27536 20004 ft 381 kts 148°
2026-05-04 19:01 51.70948 1.29520 20009 ft 379 kts 148°
2026-05-04 19:01 51.68657 1.31524 20006 ft 377 kts 162°
2026-05-04 19:01 51.66127 1.32589 20031 ft 376 kts 169°
2026-05-04 19:01 51.63553 1.33386 20037 ft 379 kts 171°
2026-05-04 19:02 51.60933 1.34133 20419 ft 384 kts 171°
2026-05-04 19:02 51.58335 1.34861 21149 ft 383 kts 171°
2026-05-04 19:02 51.55674 1.35603 21831 ft 385 kts 171°
2026-05-04 19:02 51.53059 1.36337 22376 ft 388 kts 172°
2026-05-04 19:03 51.50349 1.37106 22917 ft 392 kts 171°
2026-05-04 19:03 51.47664 1.37874 23434 ft 395 kts 171°
2026-05-04 19:03 51.44972 1.38649 23941 ft 398 kts 171°
2026-05-04 19:03 51.42203 1.39453 24452 ft 401 kts 172°
2026-05-04 19:04 51.39450 1.40259 24983 ft 403 kts 171°
2026-05-04 19:04 51.36684 1.41074 25526 ft 404 kts 171°
2026-05-04 19:04 51.33930 1.41993 26032 ft 407 kts 164°
2026-05-04 19:04 51.31405 1.43959 26479 ft 414 kts 146°
2026-05-04 19:05 51.29313 1.47228 26971 ft 421 kts 128°
2026-05-04 19:05 51.27932 1.51391 27412 ft 428 kts 112°
2026-05-04 19:05 51.27026 1.55939 27846 ft 431 kts 109°
2026-05-04 19:05 51.26250 1.60588 28214 ft 435 kts 107°
2026-05-04 19:06 51.25530 1.65291 28572 ft 438 kts 107°
2026-05-04 19:06 51.24822 1.70036 28941 ft 441 kts 107°
2026-05-04 19:06 51.24105 1.74801 29334 ft 442 kts 107°
2026-05-04 19:06 51.23374 1.79569 29700 ft 443 kts 107°
2026-05-04 19:07 51.22629 1.84354 30047 ft 445 kts 108°
2026-05-04 19:07 51.21873 1.89147 30378 ft 447 kts 108°
2026-05-04 19:07 51.21107 1.93960 30678 ft 449 kts 108°
2026-05-04 19:07 51.20335 1.98789 31014 ft 450 kts 108°
2026-05-04 19:08 51.19571 2.03556 31416 ft 449 kts 108°
2026-05-04 19:08 51.18799 2.08366 31819 ft 448 kts 109°
2026-05-04 19:08 51.18013 2.13243 32185 ft 448 kts 108°
2026-05-04 19:08 51.17237 2.18039 32535 ft 448 kts 109°
2026-05-04 19:09 51.16459 2.22845 32916 ft 447 kts 109°
2026-05-04 19:09 51.15680 2.27635 33264 ft 447 kts 109°
2026-05-04 19:09 51.14912 2.32351 33589 ft 446 kts 109°
2026-05-04 19:09 51.14131 2.37134 33945 ft 445 kts 109°
2026-05-04 19:10 51.13350 2.41899 34280 ft 444 kts 109°
2026-05-04 19:10 51.12567 2.46655 34587 ft 445 kts 109°
2026-05-04 19:10 51.11781 2.51425 34823 ft 446 kts 109°
2026-05-04 19:10 51.10993 2.56195 35111 ft 446 kts 109°
2026-05-04 19:11 51.10204 2.60963 35419 ft 445 kts 109°
2026-05-04 19:11 51.09413 2.65721 35674 ft 446 kts 109°
2026-05-04 19:11 51.08586 2.70472 35921 ft 446 kts 110°
2026-05-04 19:11 51.07728 2.75211 36175 ft 446 kts 110°
2026-05-04 19:12 51.06859 2.79946 36429 ft 446 kts 110°
2026-05-04 19:12 51.05115 2.89421 36869 ft 447 kts 110°
2026-05-04 19:12 51.04245 2.94169 36998 ft 449 kts 110°
2026-05-04 19:13 51.03366 2.98956 36994 ft 451 kts 110°
2026-05-04 19:13 51.01627 3.08433 36980 ft 442 kts 110°
2026-05-04 19:14 50.99916 3.17720 36992 ft 436 kts 110°
2026-05-04 19:14 50.98200 3.26957 36985 ft 436 kts 110°
2026-05-04 19:15 50.96481 3.36172 36983 ft 435 kts 110°
2026-05-04 19:15 50.94756 3.45375 36982 ft 435 kts 110°
2026-05-04 19:16 50.93024 3.54583 36977 ft 436 kts 110°
2026-05-04 19:16 50.91282 3.63791 36972 ft 437 kts 111°
2026-05-04 19:17 50.89510 3.73008 36975 ft 438 kts 111°
2026-05-04 19:17 50.87720 3.82227 36979 ft 439 kts 111°
2026-05-04 19:18 50.85915 3.91493 36970 ft 440 kts 111°
2026-05-04 19:18 50.84103 4.00755 36978 ft 441 kts 111°
2026-05-04 19:19 50.82281 4.10034 36964 ft 442 kts 111°
2026-05-04 19:19 50.80451 4.19310 36974 ft 442 kts 111°
2026-05-04 19:20 50.78610 4.28593 36965 ft 443 kts 112°
2026-05-04 19:20 50.76763 4.37868 36961 ft 442 kts 112°
2026-05-04 19:21 50.74911 4.47121 36962 ft 442 kts 112°
2026-05-04 19:21 50.73367 4.54808 36965 ft 442 kts 112°
2026-05-04 19:22 50.71517 4.64043 36959 ft 441 kts 111°
2026-05-04 19:22 50.69727 4.73300 36963 ft 441 kts 111°
2026-05-04 19:23 50.67934 4.82548 36960 ft 440 kts 111°
2026-05-04 19:23 50.66127 4.91770 36964 ft 440 kts 112°
2026-05-04 19:24 50.64269 5.00948 36962 ft 439 kts 112°
2026-05-04 19:24 50.62381 5.10095 36967 ft 439 kts 112°
2026-05-04 19:25 50.60495 5.19233 36963 ft 439 kts 112°
2026-05-04 19:25 50.58604 5.28383 36963 ft 439 kts 113°
2026-05-04 19:26 50.56706 5.37526 36965 ft 440 kts 113°
2026-05-04 19:26 50.54801 5.46661 36961 ft 440 kts 113°
2026-05-04 19:27 50.52891 5.55788 36967 ft 440 kts 113°
2026-05-04 19:27 50.51066 5.64979 36956 ft 443 kts 108°
2026-05-04 19:28 50.49892 5.74523 36962 ft 445 kts 105°
2026-05-04 19:28 50.48708 5.84064 36958 ft 445 kts 106°
2026-05-04 19:29 50.47465 5.93570 36965 ft 445 kts 107°
2026-05-04 19:29 50.46211 6.03079 36966 ft 445 kts 107°
2026-05-04 19:30 50.44963 6.12526 36959 ft 445 kts 107°
2026-05-04 19:30 50.43702 6.22040 36973 ft 445 kts 107°
2026-05-04 19:31 50.42434 6.31536 36973 ft 445 kts 107°
2026-05-04 19:31 50.41149 6.41049 36966 ft 445 kts 107°
2026-05-04 19:32 50.39836 6.50525 36974 ft 445 kts 107°
2026-05-04 19:32 50.38513 6.60001 36972 ft 445 kts 107°
2026-05-04 19:33 50.37185 6.69480 36974 ft 445 kts 107°
2026-05-04 19:33 50.35850 6.78949 36975 ft 445 kts 107°
2026-05-04 19:34 50.35182 6.83678 36976 ft 445 kts 107°
2026-05-04 19:34 50.34366 6.89422 36981 ft 445 kts 107°
2026-05-04 19:35 50.33017 6.98871 36989 ft 445 kts 107°
2026-05-04 19:35 50.31660 7.08312 36992 ft 445 kts 107°
2026-05-04 19:36 50.30295 7.17758 36993 ft 445 kts 107°
2026-05-04 19:36 50.28921 7.27208 36990 ft 446 kts 107°
2026-05-04 19:37 50.27536 7.36667 36993 ft 446 kts 107°
2026-05-04 19:37 50.26145 7.46122 36990 ft 446 kts 107°
2026-05-04 19:38 50.24748 7.55575 36989 ft 446 kts 107°
2026-05-04 19:38 50.23342 7.65020 36989 ft 446 kts 107°
2026-05-04 19:39 50.21938 7.74469 36985 ft 447 kts 107°
2026-05-04 19:39 50.20529 7.83910 36981 ft 447 kts 108°
2026-05-04 19:40 50.19120 7.93289 36983 ft 447 kts 108°
2026-05-04 19:40 50.17686 8.02779 36971 ft 446 kts 108°
2026-05-04 19:41 50.16257 8.12185 36973 ft 445 kts 108°
2026-05-04 19:41 50.14829 8.21523 36967 ft 445 kts 108°
2026-05-04 19:42 50.13388 8.30898 36963 ft 445 kts 108°
2026-05-04 19:42 50.11939 8.40263 36961 ft 444 kts 108°
2026-05-04 19:43 50.10484 8.49612 36962 ft 444 kts 108°
2026-05-04 19:43 50.09022 8.58950 36962 ft 444 kts 108°
2026-05-04 19:44 50.07556 8.68279 36963 ft 444 kts 108°
2026-05-04 19:44 50.06077 8.77620 36970 ft 444 kts 109°
2026-05-04 19:45 50.03829 8.86439 36984 ft 437 kts 121°
2026-05-04 19:45 50.01118 8.94923 36978 ft 439 kts 121°
2026-05-04 19:46 49.98411 9.03449 36977 ft 441 kts 120°
2026-05-04 19:46 49.95722 9.12017 36976 ft 442 kts 120°
2026-05-04 19:47 49.93030 9.20604 36979 ft 443 kts 120°
2026-05-04 19:47 49.90322 9.29204 36982 ft 443 kts 120°
2026-05-04 19:48 49.87612 9.37781 36980 ft 444 kts 120°
2026-05-04 19:48 49.84890 9.46374 36977 ft 444 kts 120°
2026-05-04 19:49 49.81871 9.54650 36975 ft 438 kts 132°
2026-05-04 19:49 49.77662 9.61296 36988 ft 431 kts 142°
2026-05-04 19:50 49.73240 9.67567 36985 ft 431 kts 142°
2026-05-04 19:50 49.68835 9.73854 36982 ft 431 kts 141°
2026-05-04 19:51 49.64449 9.80161 36989 ft 431 kts 141°
2026-05-04 19:51 49.60068 9.86462 36991 ft 431 kts 141°
2026-05-04 19:52 49.55677 9.92763 36990 ft 431 kts 141°
2026-05-04 19:52 49.51283 9.99048 36992 ft 431 kts 141°
2026-05-04 19:53 49.46885 10.05325 36982 ft 432 kts 141°
2026-05-04 19:53 49.42501 10.11564 36980 ft 432 kts 141°
2026-05-04 19:54 49.38087 10.17833 36981 ft 432 kts 141°
2026-05-04 19:54 49.33646 10.24125 36971 ft 432 kts 141°
2026-05-04 19:55 49.29231 10.30366 36974 ft 431 kts 141°
2026-05-04 19:55 49.24847 10.36544 36970 ft 431 kts 142°
2026-05-04 19:56 49.20011 10.41779 36984 ft 424 kts 153°
2026-05-04 19:56 49.14914 10.46317 36974 ft 424 kts 154°
2026-05-04 19:57 49.09826 10.50865 36972 ft 424 kts 153°
2026-05-04 19:57 49.04755 10.55453 36963 ft 424 kts 153°
2026-05-04 19:58 48.99695 10.60045 36962 ft 424 kts 153°
2026-05-04 19:58 48.94624 10.64627 36963 ft 424 kts 153°
2026-05-04 19:59 48.89557 10.69195 36960 ft 424 kts 153°
2026-05-04 19:59 48.84475 10.73767 36970 ft 425 kts 153°
2026-05-04 20:00 48.79669 10.79011 36959 ft 431 kts 137°
2026-05-04 20:00 48.75628 10.85764 36960 ft 433 kts 135°
2026-05-04 20:01 48.71643 10.92600 36968 ft 433 kts 135°
2026-05-04 20:01 48.67625 10.99397 36957 ft 433 kts 135°
2026-05-04 20:02 48.63589 11.06148 36949 ft 433 kts 135°
2026-05-04 20:02 48.59540 11.12886 36941 ft 433 kts 135°
2026-05-04 20:03 48.55496 11.19599 36950 ft 432 kts 135°
2026-05-04 20:03 48.51450 11.26301 36953 ft 431 kts 135°
2026-05-04 20:04 48.47415 11.32987 36953 ft 431 kts 135°
2026-05-04 20:04 48.43371 11.39645 36948 ft 431 kts 135°
2026-05-04 20:05 48.39321 11.46297 36950 ft 431 kts 135°
2026-05-04 20:05 48.35297 11.52898 36951 ft 431 kts 135°
2026-05-04 20:06 48.31242 11.59535 36956 ft 431 kts 135°
2026-05-04 20:06 48.27181 11.66162 36945 ft 432 kts 135°
2026-05-04 20:07 48.22915 11.72460 36948 ft 430 kts 140°
2026-05-04 20:07 48.19198 11.77493 36946 ft 430 kts 140°
2026-05-04 20:08 48.14751 11.83493 36945 ft 430 kts 140°
2026-05-04 20:08 48.10323 11.89515 36951 ft 430 kts 140°
2026-05-04 20:09 48.05908 11.95538 36961 ft 430 kts 140°
2026-05-04 20:09 48.01493 12.01557 36954 ft 429 kts 140°
2026-05-04 20:10 47.97073 12.07567 36941 ft 430 kts 140°
2026-05-04 20:10 47.92641 12.13568 36946 ft 430 kts 140°
2026-05-04 20:11 47.88201 12.19566 36941 ft 431 kts 140°
2026-05-04 20:11 47.83760 12.25554 36935 ft 431 kts 140°
2026-05-04 20:12 47.79313 12.31537 36935 ft 431 kts 140°
2026-05-04 20:12 47.74866 12.37504 36950 ft 431 kts 140°
2026-05-04 20:13 47.70418 12.43461 36951 ft 431 kts 140°
2026-05-04 20:13 47.68189 12.46443 36801 ft 433 kts 140°
2026-05-04 20:13 47.65971 12.49404 36413 ft 433 kts 140°
2026-05-04 20:13 47.63737 12.52383 35884 ft 432 kts 140°
2026-05-04 20:14 47.61433 12.55211 35378 ft 429 kts 147°
2026-05-04 20:14 47.58981 12.57682 34869 ft 427 kts 149°
2026-05-04 20:14 47.56468 12.60081 34271 ft 429 kts 150°
2026-05-04 20:14 47.53954 12.62443 33685 ft 429 kts 150°
2026-05-04 20:15 47.51426 12.64822 33067 ft 431 kts 149°
2026-05-04 20:15 47.48899 12.67218 32427 ft 433 kts 149°
2026-05-04 20:15 47.46368 12.69635 31821 ft 434 kts 149°
2026-05-04 20:15 47.43847 12.72056 31373 ft 430 kts 149°
2026-05-04 20:16 47.41347 12.74464 30878 ft 428 kts 148°
2026-05-04 20:16 47.38861 12.76863 30428 ft 425 kts 148°
2026-05-04 20:16 47.36389 12.79242 29961 ft 422 kts 148°
2026-05-04 20:16 47.33942 12.81594 29506 ft 419 kts 148°
2026-05-04 20:17 47.31507 12.83930 29034 ft 416 kts 148°
2026-05-04 20:17 47.29092 12.86244 28571 ft 413 kts 148°
2026-05-04 20:17 47.26689 12.88546 28099 ft 411 kts 148°
2026-05-04 20:17 47.24297 12.90835 27636 ft 408 kts 148°
2026-05-04 20:18 47.21925 12.93101 27175 ft 406 kts 148°
2026-05-04 20:18 47.19561 12.95358 26710 ft 403 kts 148°
2026-05-04 20:18 47.17216 12.97593 26257 ft 401 kts 148°
2026-05-04 20:18 47.14884 12.99815 25811 ft 398 kts 148°
2026-05-04 20:19 47.12565 13.02021 25344 ft 397 kts 148°
2026-05-04 20:19 47.10257 13.04216 24887 ft 394 kts 148°
2026-05-04 20:19 47.07961 13.06397 24432 ft 392 kts 148°
2026-05-04 20:19 47.05677 13.08562 23982 ft 390 kts 148°
2026-05-04 20:20 47.03403 13.10717 23525 ft 388 kts 148°
2026-05-04 20:20 47.01145 13.12853 23084 ft 386 kts 148°
2026-05-04 20:20 46.98891 13.14983 22637 ft 384 kts 148°
2026-05-04 20:20 46.96656 13.17095 22186 ft 381 kts 148°
2026-05-04 20:21 46.94435 13.19192 21751 ft 379 kts 148°
2026-05-04 20:21 46.92252 13.21250 21319 ft 377 kts 148°
2026-05-04 20:21 46.87862 13.25381 20421 ft 373 kts 148°
2026-05-04 20:22 46.85685 13.27427 19980 ft 371 kts 148°
2026-05-04 20:22 46.83521 13.29458 19541 ft 369 kts 149°
2026-05-04 20:22 46.81371 13.31475 19114 ft 366 kts 149°
2026-05-04 20:22 46.79233 13.33479 18676 ft 364 kts 149°
2026-05-04 20:23 46.77107 13.35471 18250 ft 362 kts 149°
2026-05-04 20:23 46.74999 13.37443 17831 ft 359 kts 149°
2026-05-04 20:23 46.72901 13.39405 17416 ft 357 kts 149°
2026-05-04 20:23 46.70814 13.41353 16983 ft 355 kts 149°
2026-05-04 20:24 46.68744 13.43284 16565 ft 352 kts 149°
2026-05-04 20:24 46.66686 13.45202 16143 ft 350 kts 149°
2026-05-04 20:24 46.64640 13.47108 15735 ft 348 kts 149°
2026-05-04 20:24 46.62605 13.49002 15328 ft 346 kts 149°
2026-05-04 20:25 46.60585 13.50882 14906 ft 344 kts 149°
2026-05-04 20:25 46.58576 13.52748 14492 ft 341 kts 149°
2026-05-04 20:25 46.56584 13.54594 14097 ft 339 kts 150°
2026-05-04 20:25 46.54468 13.56002 13685 ft 332 kts 168°
2026-05-04 20:26 46.52195 13.56333 13208 ft 328 kts 186°
2026-05-04 20:26 46.49957 13.55781 12807 ft 324 kts 193°
2026-05-04 20:26 46.47762 13.55079 12380 ft 322 kts 193°
2026-05-04 20:26 46.45576 13.54396 11968 ft 320 kts 193°
2026-05-04 20:27 46.43402 13.53739 11571 ft 318 kts 193°
2026-05-04 20:27 46.41235 13.53093 11166 ft 317 kts 193°
2026-05-04 20:27 46.39080 13.52450 10734 ft 315 kts 193°
2026-05-04 20:27 46.36969 13.51823 10585 ft 304 kts 193°
2026-05-04 20:28 46.34946 13.51212 10405 ft 295 kts 195°
2026-05-04 20:28 46.33086 13.50100 10150 ft 288 kts 211°
2026-05-04 20:28 46.31391 13.48571 9845 ft 286 kts 214°
2026-05-04 20:28 46.29734 13.47002 9506 ft 284 kts 214°
2026-05-04 20:29 46.28089 13.45440 9205 ft 282 kts 214°
2026-05-04 20:29 46.26448 13.43880 8870 ft 282 kts 214°
2026-05-04 20:29 46.24810 13.42318 8533 ft 282 kts 214°
2026-05-04 20:29 46.23179 13.40761 8217 ft 280 kts 214°
2026-05-04 20:30 46.21556 13.39219 7887 ft 277 kts 214°
2026-05-04 20:30 46.19949 13.37737 7640 ft 273 kts 211°
2026-05-04 20:30 46.18298 13.36415 7357 ft 270 kts 210°
2026-05-04 20:30 46.16649 13.35151 7089 ft 267 kts 210°
2026-05-04 20:31 46.15011 13.33905 6815 ft 265 kts 209°
2026-05-04 20:31 46.13380 13.32673 6538 ft 264 kts 209°
2026-05-04 20:31 46.11760 13.31457 6262 ft 262 kts 209°
2026-05-04 20:31 46.10147 13.30254 5985 ft 260 kts 209°
2026-05-04 20:32 46.08557 13.29075 5696 ft 253 kts 209°
2026-05-04 20:32 46.07015 13.27940 5410 ft 245 kts 209°
2026-05-04 20:32 46.05516 13.26840 5128 ft 238 kts 209°
2026-05-04 20:32 46.04060 13.25770 4843 ft 232 kts 209°
2026-05-04 20:33 46.02641 13.24727 4560 ft 226 kts 209°
2026-05-04 20:33 46.01255 13.23706 4265 ft 221 kts 209°
2026-05-04 20:33 45.99903 13.22708 3984 ft 217 kts 209°
2026-05-04 20:33 45.98568 13.21721 3722 ft 215 kts 209°
2026-05-04 20:34 45.97220 13.20805 3527 ft 217 kts 198°
2026-05-04 20:34 45.95706 13.20602 3353 ft 221 kts 183°
2026-05-04 20:34 45.94166 13.20544 3149 ft 222 kts 184°
2026-05-04 20:34 45.92626 13.20471 2938 ft 221 kts 184°
2026-05-04 20:35 45.91099 13.20390 2767 ft 217 kts 184°
2026-05-04 20:35 45.89637 13.20300 2694 ft 204 kts 184°
2026-05-04 20:35 45.88264 13.20207 2571 ft 192 kts 184°
2026-05-04 20:35 45.86968 13.20434 2497 ft 191 kts 153°
2026-05-04 20:36 45.86088 13.21814 2531 ft 192 kts 122°
2026-05-04 20:36 45.85388 13.23436 2512 ft 194 kts 124°
2026-05-04 20:36 45.84666 13.25070 2509 ft 193 kts 124°
2026-05-04 20:36 45.83940 13.26717 2507 ft 192 kts 124°
2026-05-04 20:37 45.83242 13.28305 2480 ft 184 kts 123°
2026-05-04 20:37 45.82846 13.30005 2189 ft 185 kts 90°
2026-05-04 20:37 45.82902 13.31839 1862 ft 178 kts 92°
2026-05-04 20:37 45.82874 13.33491 1614 ft 161 kts 92°
2026-05-04 20:38 45.82858 13.35039 1397 ft 148 kts 91°
2026-05-04 20:38 45.82847 13.36469 1218 ft 145 kts 90°
2026-05-04 20:38 45.82838 13.37929 1035 ft 148 kts 89°
2026-05-04 20:38 45.82829 13.39402 836 ft 148 kts 89°
2026-05-04 20:39 45.82820 13.40870 636 ft 146 kts 89°
2026-05-04 20:39 45.82808 13.42325 430 ft 145 kts 90°
2026-05-04 20:39 45.82794 13.43781 246 ft 147 kts 89°
2026-05-04 20:39 45.82787 13.45257 71 ft 148 kts 90°
2026-05-04 20:40 45.82787 13.46599 44 ft 110 kts 90°
2026-05-04 20:40 45.82784 13.47343 48 ft 36 kts 91°
2026-05-04 20:40 45.82768 13.47628 47 ft 18 kts 118°
2026-05-04 20:40 45.82683 13.47747 46 ft 17 kts 140°
2026-05-04 20:41 45.82593 13.47854 44 ft 16 kts 140°
2026-05-04 20:41 45.82507 13.47955 46 ft 16 kts 140°
2026-05-04 20:41 45.82425 13.48054 46 ft 15 kts 140°
2026-05-04 20:41 45.82347 13.48151 43 ft 14 kts 139°
2026-05-04 20:42 45.82283 13.48231 46 ft 8 kts 139°
2026-05-04 20:42 45.82249 13.48283 46 ft 5 kts 152°
2026-05-04 20:42 45.82221 13.48296 46 ft 3 kts 171°
2026-05-04 20:42 45.82201 13.48301 44 ft 3 kts 171°
2026-05-04 20:43 45.82188 13.48303 46 ft 0 kts 171°